Tracking 22879 objects as of 21-Apr-2021
HD Live streaming from Space Station
objects crossing your sky now

COSMOS 1996

Track COSMOS 1996 now!
10-day predictions
COSMOS 1996 is classified as:


NORAD ID: 19787
Int'l Code: 1989-009C
Perigee: 1,413.0 km
Apogee: 1,423.6 km
Inclination: 82.6 °
Period: 114.0 minutes
Semi major axis: 7789 km
RCS: 1.1678 m2 (large)
Launch date: February 10, 1989
Source: Commonwealth of Independent States (former USSR) (CIS)
Launch site: PLESETSK MISSILE AND SPACE COMPLEX (PKMTR)
aabbcc
Your satellite tracking list
Your tracking list is empty




NASA's NSSDC Master Catalog

Two Line Element Set (TLE):
1 19787U 89009C   21111.15895251  .00000027  00000-0  90607-4 0  9995
2 19787  82.6090 123.3314 0006831  14.6312  54.7710 12.62863468483938
Source of the keplerian elements: AFSPC